Location: Amarillo Post Office Jordan Station
(35.1907°N, 101.9342°W)
Time: 12:37:10
(UTC+00:00)

Nadezhda 4 Rocket - Pass Details

Date: 24 January 2021
Orbit: 949 x 993 km, 83.0° (Epoch: 03 March)

Event Time Altitude Azimuth Distance (km) Brightness Sun altitude
Rises 12:14:48 0° 351° (N) 3,629 6.8 -19.8°
Reaches altitude 10° 12:17:18 10° 350° (N) 2,678 6.1 -19.3°
Maximum altitude 12:23:24 76° 266° (W) 978 3.8 -18.1°
Drops below altitude 10° 12:29:29 10° 181° (S) 2,669 6.4 -16.9°
Sets 12:31:58 0° 180° (S) 3,614 7.1 -16.4°
